Weather History for Columbus, GA

Change the Weather History Date:

Tuesday, December 17, 2013

  Actual Average Record
Temperature  
Mean Temperature 47 °F 49 °F  
Max Temperature 63 °F 59 °F 79 °F (1984)
Min Temperature 31 °F 39 °F 18 °F (1960)
Degree Days  
Heating Degree Days 18 16  
Month to date heating degree days 196 250  
Since 1 July heating degree days 544 582  
Cooling Degree Days 0 0  
Month to date cooling degree days 15 0  
Year to date cooling degree days 2362 2364  
Moisture  
Dew Point 31 °F    
Average Humidity 61    
Maximum Humidity 92    
Minimum Humidity 29    
Precipitation  
Precipitation 0.00 in 0.14 in 1.76 in (1992)
Month to date precipitation 2.36 2.45  
Year to date precipitation 56.14 44.93  
Snow  
Snow 0.00 in 0.00 in 0.00 in (2001)
Month to date snowfall 0.0 0.0  
Since 1 July snowfall 0.0 0.0  
Snow Depth 0.00 in    
Sea Level Pressure  
Sea Level Pressure 30.23 in    
Wind  
Wind Speed 4 mph (West)    
Max Wind Speed 16 mph    
Max Gust Speed 20 mph    
Visibility 10 miles    
Events      
T = Trace of Precipitation, MM = Missing Value Source: NWS Daily Summary

Daily Weather History Graph

Daily Weather History Graph

Search for Another Location

Airport:

Trip Planner

Search our weather history database for the weather conditions in past years. The results will help you decide how hot, cold, wet, or windy it might be!

Date:

Astronomy

Dec. 17, 2013 Rise Set
Actual Time 7:35 AM EST 5:36 PM EST
Civil Twilight 7:08 AM EST 6:03 PM EST
Nautical Twilight 6:37 AM EST 6:34 PM EST
Astronomical Twilight 6:07 AM EST 7:04 PM EST
Moon 6:12 PM EST (12/17) 7:34 AM EST (12/17)
Length of Visible Light 10h 55m
Length of Day
10h 01m
Full, 100% of the Moon is Illuminated
Dec 17
Full
Dec 25
Last Quarter
Jan 1
New
Jan 7
First Quarter
Jan 15
Full

Hourly Weather History & Observations

Time (EST) Temp. Dew Point Humidity Pressure Visibility Wind Dir Wind Speed Gust Speed Precip Events Conditions
1:51 AM 37.0 °F 32.0 °F 82% 30.26 in 10.0 mi Calm Calm - N/A   Clear
2:51 AM 35.1 °F 32.0 °F 89% 30.27 in 10.0 mi Calm Calm - N/A   Clear
3:51 AM 34.0 °F 30.9 °F 89% 30.27 in 10.0 mi Calm Calm - N/A   Clear
4:51 AM 32.0 °F 30.0 °F 92% 30.27 in 10.0 mi Calm Calm - N/A   Clear
5:51 AM 32.0 °F 30.0 °F 92% 30.27 in 9.0 mi Calm Calm - N/A   Clear
6:51 AM 32.0 °F 28.9 °F 88% 30.28 in 10.0 mi Calm Calm - N/A   Clear
7:51 AM 32.0 °F 30.0 °F 92% 30.28 in 7.0 mi Calm Calm - N/A   Clear
8:51 AM 36.0 °F 33.1 °F 89% 30.28 in 8.0 mi Calm Calm - N/A   Clear
9:51 AM 44.1 °F 36.0 °F 73% 30.30 in 10.0 mi Calm Calm - N/A   Clear
10:51 AM 53.1 °F 34.0 °F 48% 30.29 in 10.0 mi West 6.9 mph - N/A   Clear
11:51 AM 57.9 °F 34.0 °F 41% 30.26 in 10.0 mi WNW 6.9 mph - N/A   Clear
12:51 PM 61.0 °F 30.0 °F 31% 30.21 in 10.0 mi West 12.7 mph - N/A   Clear
1:51 PM 62.1 °F 30.9 °F 31% 30.19 in 10.0 mi WSW 13.8 mph - N/A   Clear
2:51 PM 63.0 °F 30.0 °F 29% 30.17 in 10.0 mi WSW 9.2 mph - N/A   Clear
3:51 PM 62.1 °F 30.0 °F 30% 30.16 in 10.0 mi West 11.5 mph - N/A   Clear
4:51 PM 61.0 °F 28.9 °F 30% 30.17 in 10.0 mi WNW 10.4 mph - N/A   Clear
5:51 PM 57.0 °F 30.0 °F 36% 30.18 in 10.0 mi West 5.8 mph - N/A   Clear
6:51 PM 54.0 °F 30.9 °F 41% 30.19 in 10.0 mi WSW 3.5 mph - N/A   Clear
7:51 PM 51.1 °F 32.0 °F 48% 30.20 in 10.0 mi WNW 3.5 mph - N/A   Clear
8:51 PM 50.0 °F 32.0 °F 50% 30.21 in 10.0 mi Calm Calm - N/A   Clear
9:51 PM 48.0 °F 32.0 °F 54% 30.21 in 10.0 mi West 3.5 mph - N/A   Clear
10:51 PM 48.0 °F 30.9 °F 52% 30.21 in 10.0 mi West 4.6 mph - N/A   Clear
11:51 PM 46.9 °F 32.0 °F 56% 30.22 in 10.0 mi WNW 6.9 mph - N/A   Clear